Probability
0 0 0 0 0 0 0 0 0 0 0 0 1 0 0 0 0 0 0 0 0 0 0 1 2 2 1 0 1 2 3 5 7 7 6 6 6 7 6 4 3 1 0 0
0 0 0 0 0 0 0 0 0 0 0 1 1 1 0 0 0 0 0 0 0 0 0 0 1 1 0 0 0 1 1 3 5 5 5 5 6 6 5 4 3 2 1 0
0 0 0 0 0 0 0 0 0 0 0 1 2 1 0 0 0 0 0 0 0 0 0 0 0 0 0 0 0 0 0 2 3 4 4 5 5 5 5 4 3 2 1 0
0 0 0 0 0 0 0 0 0 0 0 1 1 1 0 0 0 0 0 0 0 0 0 0 0 0 0 0 0 0 0 1 2 3 3 4 5 5 5 5 5 4 2 1
0 0 0 0 0 0 0 0 0 0 1 1 0 0 0 0 0 0 0 0 0 0 0 0 0 0 0 0 0 0 0 0 1 1 2 3 4 5 6 8 7 5 3 1
0 0 0 0 0 0 0 0 0 0 0 0 0 0 0 0 0 0 0 0 0 0 0 0 0 0 0 0 0 0 0 0 0 0 1 3 4 5 7 8 7 6 3 1
0 0 0 0 0 0 0 0 0 0 0 0 0 0 0 0 0 0 0 0 0 0 0 0 0 0 0 0 0 0 0 0 0 0 1 2 3 5 7 7 5 4 3 1
0 0 0 0 0 0 0 0 0 0 0 0 0 0 0 0 0 0 0 0 0 0 0 0 0 0 0 0 0 0 0 0 0 0 1 2 3 4 5 4 2 2 2 1
0 0 0 0 0 0 0 0 0 0 0 0 0 0 0 0 0 0 0 0 0 0 0 0 0 0 0 0 0 0 0 0 0 0 1 2 3 3 3 2 0 0 0 0
0 0 0 0 0 0 0 0 0 0 0 0 0 0 0 0 0 0 0 0 0 0 0 0 0 0 0 0 0 0 0 0 0 0 0 1 3 3 2 1 0 0 0 0
0 0 0 0 0 0 0 0 0 0 0 0 0 0 0 0 0 0 0 0 0 0 0 0 0 0 0 0 0 0 0 0 0 0 0 1 2 3 2 1 0 0 0 0
0 0 0 0 0 0 0 0 0 0 0 0 0 0 0 0 0 0 0 0 0 0 0 0 0 0 0 0 0 0 0 0 0 0 0 1 2 2 1 0 0 0 0 0
0 0 0 0 0 0 0 0 0 0 0 0 0 0 0 0 0 0 0 0 0 0 0 0 0 0 0 0 0 0 0 0 0 0 0 0 1 1 0 0 0 0 0 0
0 0 0 0 0 0 0 0 0 0 0 0 0 0 0 0 0 0 0 0 0 0 0 0 0 0 0 0 0 0 0 0 0 0 0 0 0 0 0 0 0 0 0 0
0 0 0 0 0 0 0 0 0 0 0 0 0 0 0 0 0 0 0 0 0 0 0 0 0 0 0 0 0 0 0 0 0 0 0 0 0 0 0 0 0 0 0 0
0 0 0 0 0 0 0 0 0 0 0 0 0 0 0 0 0 0 0 0 0 0 0 0 0 0 0 0 0 0 0 0 0 0 0 0 0 0 0 0 0 0 0 0
0 0 0 0 0 0 0 0 0 0 0 0 0 0 0 0 0 0 0 0 0 0 0 0 0 0 0 0 0 0 0 0 0 0 0 0 0 0 0 0 0 0 0 0
0 0 0 0 0 0 0 0 0 0 0 0 0 0 0 0 0 0 0 0 0 0 0 0 0 0 0 0 0 0 0 0 0 0 0 0 0 0 0 0 0 0 0 0
0 0 0 0 0 0 0 0 0 0 0 0 0 0 0 0 0 0 0 0 0 0 0 0 0 0 0 0 0 0 0 0 0 0 0 0 0 0 0 0 0 0 0 0
0 0 0 0 0 0 0 0 0 0 0 0 0 0 0 0 0 0 0 0 0 0 0 0 0 0 0 0 0 0 0 0 0 0 0 0 0 0 0 0 0 0 0 0
0 0 0 0 0 0 0 0 0 0 0 0 0 0 0 0 0 0 0 0 0 0 0 0 0 0 0 0 0 0 0 0 0 0 0 0 0 0 0 0 0 0 0 0
0 0 0 0 0 0 0 0 0 0 0 0 0 0 0 0 0 0 0 0 0 0 0 0 0 0 0 0 0 0 0 0 0 0 0 0 0 0 0 0 0 0 0 0
0 0 0 0 0 0 0 0 0 0 0 0 0 0 0 0 0 0 0 0 0 0 0 0 0 0 0 0 0 0 0 0 0 0 0 0 0 0 0 0 0 0 0 0
0 0 0 0 0 0 0 0 0 0 0 0 0 0 0 0 0 0 0 0 0 0 0 0 0 0 0 0 0 0 0 0 0 0 0 0 0 0 0 0 0 0 0 0
0 0 0 0 0 0 0 0 0 0 0 0 0 0 0 0 0 0 0 0 0 0 0 0 0 0 0 0 0 0 0 0 0 0 0 0 0 0 0 0 0 0 0 0
0 0 0 0 0 0 0 0 0 0 0 0 0 0 0 0 0 0 0 0 0 0 0 0 0 0 0 0 0 0 0 0 0 0 0 0 0 0 0 0 0 0 0 0
0 0 0 0 0 0 0 0 0 0 0 0 0 0 0 0 0 0 0 0 0 0 0 0 0 0 0 0 0 0 0 0 0 0 0 0 0 0 0 0 0 0 0 0
Wind_Speed
9 9 9 9 9 9 9 9 9 8 6 2 0 1 0 1 2 2 2 2 2 1 1 2 2 2 2 2 2 1 1 1 1 1 1 1 0 1 1 1 1 0 1 1
10 10 9 11 10 10 10 9 9 8 6 1 1 1 1 1 1 1 2 2 2 1 1 1 2 2 2 2 2 2 1 1 1 1 1 1 0 0 1 1 1 1 1 1
8 8 9 10 8 7 6 5 5 6 4 1 1 1 1 1 0 1 1 2 1 1 1 1 2 2 2 2 3 2 2 1 1 1 2 2 0 1 0 0 1 1 1 1
7 7 10 3 2 2 3 3 3 3 1 1 1 1 1 2 1 2 2 3 2 2 1 1 1 1 2 2 2 3 2 2 2 1 1 2 0 1 0 1 1 1 1 1
5 7 7 4 1 0 2 2 2 2 2 3 3 2 2 4 4 3 3 2 2 1 1 1 1 1 1 2 2 2 3 2 2 2 1 1 0 0 1 1 1 1 1 1
5 6 6 1 2 2 2 2 3 2 2 2 2 1 1 3 4 4 4 3 2 2 1 2 2 1 1 1 2 2 3 3 2 2 1 1 1 0 1 1 0 1 1 1
8 7 3 1 2 1 2 1 3 2 2 1 1 1 2 3 3 4 3 3 3 2 1 1 2 1 1 2 2 2 3 3 2 2 1 1 0 1 1 1 1 1 1 1
6 7 3 3 1 1 2 3 2 2 2 2 2 3 3 2 2 2 2 2 3 2 1 1 2 2 2 2 2 2 2 2 2 2 2 1 1 2 2 1 1 0 1 1
2 1 2 2 2 2 3 3 3 3 3 3 2 2 2 2 2 2 2 2 2 2 2 1 1 2 2 2 2 2 2 2 1 2 2 1 2 2 2 1 1 0 1 1
3 2 1 1 2 3 3 3 3 3 3 3 2 2 2 2 1 1 1 2 2 2 2 1 1 2 2 2 2 1 2 2 2 2 2 2 1 2 2 1 1 1 1 1
6 4 2 1 2 3 2 2 2 2 2 2 1 1 1 1 1 1 1 1 2 2 2 2 2 2 2 1 1 1 1 2 1 1 1 1 2 2 2 2 2 1 0 1
4 3 3 3 3 3 2 1 1 1 1 0 0 1 1 1 1 1 1 1 2 2 2 1 2 2 2 1 1 1 1 1 1 1 1 1 1 2 3 3 4 4 3 3
2 3 3 3 3 2 1 1 1 1 1 1 1 0 1 1 1 1 1 1 1 2 2 2 1 2 2 2 1 2 1 1 1 1 1 1 1 1 1 2 3 3 4 4
2 2 3 2 2 1 1 1 1 1 1 1 1 1 1 1 1 1 1 2 1 1 1 1 1 1 1 1 1 1 1 2 1 1 1 1 0 1 1 1 1 1 2 3
2 2 2 2 1 1 1 1 1 1 1 1 1 1 1 1 1 1 1 1 1 1 1 1 1 1 1 1 1 1 1 1 1 1 1 0 1 1 1 1 1 1 1 2
2 2 1 1 2 1 1 1 2 1 1 1 2 2 1 1 1 1 1 1 1 1 1 1 1 1 1 1 1 1 1 3 2 1 1 1 1 1 1 1 1 1 1 1
1 2 1 1 1 1 1 2 1 2 1 1 1 1 1 1 1 1 1 1 1 1 1 1 1 2 2 1 1 1 1 1 2 1 1 1 1 1 1 1 1 1 1 2
1 0 1 1 1 1 1 1 1 1 2 2 1 1 1 1 1 1 1 1 1 1 1 1 1 2 2 2 1 1 1 1 1 1 1 1 1 1 0 1 1 2 1 1
1 1 1 1 1 1 1 1 1 1 1 1 1 1 1 1 1 0 0 1 0 0 1 2 3 2 1 1 1 1 1 1 1 1 1 1 1 1 1 1 1 1 1 1
1 1 1 1 1 1 1 1 1 1 1 0 0 1 1 1 1 0 0 0 0 0 1 2 1 1 1 1 1 1 1 1 1 1 1 1 1 1 1 1 1 1 1 2
1 1 1 1 1 1 1 1 0 1 1 1 1 1 1 1 1 1 0 0 1 2 2 2 1 1 1 2 2 1 1 1 1 1 1 1 1 1 1 2 2 2 1 2
0 0 0 1 1 1 1 1 1 1 1 1 1 1 1 1 1 2 1 1 1 2 1 1 1 2 2 2 0 0 1 1 1 1 1 1 1 1 1 2 2 2 1 1
0 0 0 1 1 1 1 1 1 1 1 1 1 1 1 1 1 1 1 1 2 2 2 1 1 2 2 1 0 1 1 1 1 1 1 1 1 1 1 1 1 1 1 1
0 1 1 1 1 1 1 1 2 2 2 2 2 2 2 2 2 2 2 2 2 2 1 1 1 2 1 1 1 1 1 1 1 1 1 1 1 1 1 1 1 1 2 2
1 1 1 1 0 1 1 2 2 2 2 2 2 3 2 2 1 1 2 2 2 1 1 1 1 1 1 1 1 1 1 1 1 1 1 1 1 1 1 1 1 1 1 1
1 1 1 1 1 1 1 1 1 1 1 1 2 2 2 2 2 2 1 1 2 1 1 1 0 0 0 1 1 1 1 1 1 1 1 0 0 0 1 1 1 1 1 1
1 1 1 1 1 1 1 1 1 1 1 1 1 1 1 1 1 1 1 1 1 1 0 0 1 1 0 1 1 1 1 1 1 1 1 0 0 0 1 1 1 1 1 1
Wind_Direction
275 284 281 274 267 262 259 265 272 282 286 289 92 82 36 81 120 122 112 107 84 62 39 47 30 17 10 3 358 351 358 16 347 336 330 331 0 25 30 43 26 64 66 28
274 272 270 267 262 258 259 265 270 278 282 307 93 94 50 15 90 136 119 97 81 70 37 41 32 13 356 354 345 345 4 337 354 355 353 343 289 72 25 32 39 50 53 54
275 274 273 259 253 248 249 264 273 276 289 352 327 302 18 4 30 115 94 93 69 27 17 24 19 11 347 349 356 346 337 340 355 8 356 315 251 118 110 73 76 81 64 74
274 273 258 257 323 269 251 281 294 305 354 348 328 343 62 47 47 60 65 69 52 24 12 18 31 7 350 352 353 345 340 345 340 349 337 318 18 126 124 72 84 100 97 91
260 265 266 253 242 268 259 267 349 30 34 14 16 14 66 47 46 51 60 60 50 32 8 1 4 18 359 342 346 346 342 339 354 347 320 316 301 191 137 95 76 84 94 97
253 259 264 324 64 36 321 247 37 53 56 28 22 331 20 37 41 36 41 44 40 31 29 10 354 9 12 352 358 343 338 341 352 343 314 314 287 258 74 87 84 86 93 107
247 254 257 52 32 11 255 337 30 22 26 3 338 25 64 51 42 37 33 28 19 18 35 16 356 2 24 22 350 340 351 1 2 357 355 1 91 66 62 61 60 42 63 47
241 246 240 89 52 23 3 10 24 34 32 8 22 65 67 59 44 45 26 20 11 8 21 17 9 14 29 17 357 1 2 2 2 4 4 33 78 85 78 70 88 47 42 20
270 284 68 95 55 25 10 2 15 27 27 30 49 71 67 58 37 27 21 10 11 360 356 6 19 20 12 6 16 13 9 3 5 8 20 45 84 91 92 80 75 6 24 17
282 261 317 4 45 43 21 9 21 35 33 44 46 43 43 36 22 17 9 3 357 334 325 334 8 21 11 7 15 16 6 2 14 23 22 29 65 91 91 88 86 52 7 336
275 285 310 6 10 4 14 31 27 37 37 36 39 28 2 345 350 3 354 344 327 316 327 346 1 15 12 13 2 356 2 356 9 29 40 36 53 63 83 82 80 80 360 343
265 287 293 302 331 338 342 5 347 351 355 351 272 264 309 318 321 328 313 311 315 327 330 337 350 354 8 12 359 345 357 357 12 62 57 59 68 52 51 66 65 54 48 44
310 332 319 300 322 324 312 321 320 311 304 305 322 319 317 308 312 315 304 303 313 325 331 341 339 347 360 3 1 357 2 355 10 65 73 61 71 87 53 36 58 49 36 40
17 358 318 325 324 329 319 310 305 302 313 328 321 311 306 306 313 306 309 314 321 326 325 328 332 343 357 8 16 7 360 3 15 51 78 85 89 96 107 97 66 26 12 29
313 315 306 321 316 309 314 311 286 275 305 330 335 333 335 334 331 326 330 331 340 330 328 335 333 340 359 17 23 5 2 10 34 46 63 87 72 75 82 80 79 62 55 34
320 314 294 251 262 281 307 298 290 293 306 334 339 340 351 360 351 339 332 318 305 300 319 337 328 351 18 39 31 25 42 33 35 39 45 49 61 76 84 94 99 86 78 66
244 262 273 262 267 288 292 296 306 321 322 318 322 328 333 342 343 345 344 334 331 331 349 347 6 22 33 41 32 32 51 54 53 50 51 52 40 61 79 97 96 85 80 73
221 240 278 276 259 263 281 309 319 316 316 323 332 331 317 312 307 326 341 346 15 22 8 16 45 46 37 21 19 32 50 75 78 64 45 39 20 20 68 94 92 79 74 84
42 48 7 329 313 282 276 292 300 297 303 318 6 354 336 333 346 346 5 353 341 327 3 58 61 50 34 24 18 21 37 60 80 70 62 37 25 32 55 71 80 73 82 89
34 33 4 326 318 310 310 319 318 316 339 36 49 21 357 356 7 333 295 301 307 84 87 71 49 17 25 56 49 39 40 58 76 73 61 51 38 29 35 48 68 67 70 82
49 41 352 326 326 321 315 326 349 14 47 67 70 47 6 356 6 14 23 20 36 53 66 67 29 17 41 51 48 26 50 64 60 73 62 49 49 36 36 39 37 34 57 75
307 309 304 308 318 336 16 38 65 72 69 68 61 46 31 39 42 34 21 55 83 66 53 40 36 46 45 41 8 29 94 80 52 57 69 59 53 42 39 41 38 29 42 65
302 351 330 337 6 46 55 54 63 77 85 81 71 62 60 61 71 77 36 46 67 58 48 38 32 28 23 15 347 69 86 80 66 59 67 66 55 38 28 34 40 33 24 32
49 43 40 46 37 65 70 55 57 65 68 68 65 67 71 67 54 47 64 85 69 53 53 48 355 342 353 353 39 66 74 78 74 62 54 52 45 35 21 21 30 31 23 15
44 33 62 79 76 77 75 69 65 59 58 63 60 54 53 63 69 63 68 81 89 73 56 69 11 346 8 40 63 63 62 73 78 71 62 54 46 33 13 15 30 26 16 12
59 52 75 92 73 69 90 94 89 85 73 62 58 58 56 58 65 68 80 91 87 58 49 94 93 36 40 52 60 65 60 59 61 68 73 57 35 29 9 8 10 6 1 11
76 72 80 82 78 80 99 112 118 122 113 101 82 66 67 72 81 82 80 88 90 70 69 124 134 116 55 55 72 65 64 66 67 67 54 41 41 36 1 341 329 330 332 332